Location: Carnetin
(48.9010°N, 2.7059°E)
Time: 03:59:51
(UTC+00:00)

USA 229 - Pass Details

Date: 31 May 2022
Orbit: 938 x 1274 km, 63.4° (Epoch: 24 May)

Event Time Altitude Azimuth Distance (km) Brightness Sun altitude
Rises 22:22:19 0° 317° (NW) 3,931 8.0 -16.6°
Reaches altitude 10° 22:24:55 10° 319° (NW) 3,018 7.2 -16.8°
Maximum altitude 22:32:13 78° 46° (NE) 1,226 4.0 -17.1°
Enters shadow 22:38:08 19° 131° (SE) 2,582 5.2 -17.4°
